| time (UTC) | temp F | wind direction | speed MPH | gust MPH | rain 1hr in | rain 24hr in | rain mn in | humidity % | barometer mb |
| 20260506043948 | 67 | 152 | 4.0 | 12.0 | 0.00 | 0.07 | 0.07 | 77 | 1008.1 |
| 20260506043446 | 68 | 151 | 6.0 | 9.0 | 0.00 | 0.07 | 0.07 | 76 | 1008.0 |
| 20260506042944 | 68 | 166 | 4.0 | 9.0 | 0.00 | 0.07 | 0.07 | 77 | 1008.0 |
| 20260506042443 | 68 | 155 | 4.0 | 10.0 | 0.00 | 0.07 | 0.07 | 76 | 1007.9 |
| 20260506041940 | 69 | 162 | 3.0 | 10.0 | 0.00 | 0.07 | 0.07 | 76 | 1007.7 |
| 20260506041438 | 69 | 159 | 3.0 | 11.0 | 0.00 | 0.07 | 0.07 | 75 | 1007.5 |
| 20260506040935 | 69 | 158 | 5.0 | 10.0 | 0.00 | 0.07 | 0.07 | 76 | 1007.5 |
| 20260506040433 | 69 | 194 | 5.0 | 8.0 | 0.00 | 0.07 | 0.07 | 75 | 1007.5 |
| 20260506035928 | 70 | 150 | 7.0 | 11.0 | 0.00 | 0.07 | 0.07 | 75 | 1007.8 |
| 20260506035426 | 70 | 176 | 3.0 | 11.0 | 0.00 | 0.07 | 0.07 | 76 | 1007.8 |
| 20260506034922 | 70 | 156 | 7.0 | 12.0 | 0.00 | 0.07 | 0.07 | 75 | 1007.5 |
| 20260506034420 | 70 | 173 | 6.0 | 12.0 | 0.00 | 0.07 | 0.07 | 75 | 1007.4 |
| 20260506033917 | 70 | 166 | 6.0 | 10.0 | 0.00 | 0.07 | 0.07 | 74 | 1007.3 |
| 20260506033414 | 71 | 163 | 6.0 | 9.0 | 0.00 | 0.07 | 0.07 | 74 | 1007.4 |
| 20260506032911 | 71 | 149 | 3.0 | 10.0 | 0.00 | 0.07 | 0.07 | 75 | 1007.2 |
| 20260506032408 | 71 | 144 | 3.0 | 8.0 | 0.00 | 0.07 | 0.07 | 75 | 1006.9 |
| 20260506031904 | 71 | 197 | 8.0 | 12.0 | 0.00 | 0.07 | 0.07 | 74 | 1007.3 |
| 20260506031402 | 71 | 150 | 9.0 | 11.0 | 0.00 | 0.07 | 0.07 | 75 | 1007.3 |
| 20260506030859 | 72 | 180 | 5.0 | 11.0 | 0.00 | 0.07 | 0.07 | 75 | 1007.1 |
| 20260506030358 | 72 | 148 | 9.0 | 11.0 | 0.00 | 0.07 | 0.07 | 75 | 1006.8 |
| 20260506025854 | 73 | 160 | 5.0 | 9.0 | 0.00 | 0.07 | 0.07 | 76 | 1006.6 |
| 20260506025351 | 73 | 168 | 4.0 | 10.0 | 0.00 | 0.07 | 0.07 | 75 | 1006.5 |
| 20260506024848 | 74 | 173 | 5.0 | 9.0 | 0.00 | 0.07 | 0.07 | 74 | 1006.3 |
| 20260506024344 | 74 | 154 | 6.0 | 10.0 | 0.00 | 0.07 | 0.07 | 75 | 1005.7 |
| 20260506023840 | 74 | 155 | 4.0 | 6.0 | 0.00 | 0.07 | 0.07 | 75 | 1005.7 |
| 20260506023337 | 74 | 255 | 1.0 | 6.0 | 0.00 | 0.07 | 0.07 | 74 | 1005.7 |
| 20260506022834 | 74 | 202 | 2.0 | 6.0 | 0.00 | 0.07 | 0.07 | 74 | 1005.2 |
| 20260506022332 | 74 | 136 | 2.0 | 8.0 | 0.00 | 0.07 | 0.07 | 74 | 1005.1 |
| 20260506021830 | 74 | 169 | 0.0 | 4.0 | 0.00 | 0.07 | 0.07 | 74 | 1005.2 |
| 20260506021327 | 74 | 168 | 2.0 | 6.0 | 0.00 | 0.07 | 0.07 | 74 | 1005.4 |
| 20260506020823 | 74 | 231 | 3.0 | 6.0 | 0.00 | 0.07 | 0.07 | 75 | 1005.3 |
| 20260506020321 | 74 | 156 | 2.0 | 5.0 | 0.00 | 0.07 | 0.07 | 74 | 1004.9 |
| 20260506015819 | 74 | 163 | 5.0 | 6.0 | 0.00 | 0.07 | 0.07 | 74 | 1005.3 |
| 20260506015316 | 74 | 168 | 2.0 | 5.0 | 0.00 | 0.07 | 0.07 | 75 | 1005.2 |
| 20260506014812 | 74 | 225 | 2.0 | 4.0 | 0.00 | 0.07 | 0.07 | 75 | 1005.0 |
| 20260506014309 | 74 | 162 | 2.0 | 5.0 | 0.00 | 0.07 | 0.07 | 74 | 1005.0 |
| 20260506013806 | 74 | 132 | 2.0 | 2.0 | 0.00 | 0.07 | 0.07 | 75 | 1004.7 |
| 20260506013303 | 75 | 193 | 4.0 | 6.0 | 0.00 | 0.07 | 0.07 | 74 | 1005.0 |
| 20260506012800 | 75 | 181 | 5.0 | 10.0 | 0.00 | 0.07 | 0.07 | 73 | 1005.1 |
| 20260506012257 | 76 | 148 | 9.0 | 14.0 | 0.00 | 0.07 | 0.07 | 73 | 1004.8 |
| 20260506011754 | 78 | 144 | 3.0 | 4.0 | 0.00 | 0.07 | 0.07 | 85 | 1004.4 |
| 20260506011250 | 78 | 136 | 2.0 | 6.0 | 0.00 | 0.07 | 0.07 | 82 | 1004.4 |
| 20260506010748 | 79 | 34 | 0.0 | 2.0 | 0.00 | 0.07 | 0.07 | 80 | 1004.3 |
| 20260506010245 | 79 | 354 | 4.0 | 6.0 | 0.00 | 0.07 | 0.07 | 80 | 1003.8 |
| 20260506005743 | 79 | 21 | 5.0 | 8.0 | 0.00 | 0.07 | 0.07 | 80 | 1004.3 |
| 20260506005239 | 78 | 22 | 5.0 | 7.0 | 0.00 | 0.07 | 0.07 | 81 | 1004.2 |
| 20260506004735 | 78 | 16 | 4.0 | 8.0 | 0.00 | 0.07 | 0.07 | 81 | 1004.2 |
| 20260506004233 | 78 | 2 | 5.0 | 9.0 | 0.00 | 0.07 | 0.07 | 81 | 1004.2 |
| 20260506003729 | 78 | 22 | 5.0 | 8.0 | 0.07 | 0.07 | 0.07 | 82 | 1004.1 |
| 20260506003226 | 78 | 9 | 6.0 | 7.0 | 0.21 | 0.07 | 0.07 | 81 | 1004.1 |
| 20260506002721 | 79 | 40 | 3.0 | 7.0 | 0.33 | 0.06 | 0.06 | 80 | 1004.2 |
| 20260506002218 | 80 | 19 | 2.0 | 4.0 | 0.19 | 0.03 | 0.03 | 78 | 1004.1 |
| 20260506001714 | 81 | 24 | 5.0 | 9.0 | 0.05 | 0.01 | 0.01 | 73 | 1004.1 |
| 20260506001212 | 82 | 358 | 6.0 | 10.0 | 0.00 | 0.00 | 0.00 | 70 | 1003.7 |
| 20260506000708 | 83 | 0 | 7.0 | 11.0 | 0.00 | 0.00 | 0.00 | 68 | 1003.4 |
| 20260506000206 | 83 | 7 | 11.0 | 17.0 | 0.00 | 0.00 | 0.00 | 68 | 1003.5 |
| 20260505235703 | 83 | 337 | 8.0 | 11.0 | 0.00 | 0.00 | 0.00 | 68 | 1003.1 |
| 20260505235201 | 83 | 12 | 14.0 | 17.0 | 0.00 | 0.00 | 0.00 | 68 | 1002.9 |
| 20260505234657 | 84 | 353 | 14.0 | 15.0 | 0.00 | 0.00 | 0.00 | 66 | 1003.2 |
| 20260505234154 | 84 | 358 | 6.0 | 16.0 | 0.00 | 0.00 | 0.00 | 66 | 1003.5 |
| 20260505233651 | 85 | 33 | 4.0 | 11.0 | 0.00 | 0.00 | 0.00 | 66 | 1003.3 |
| 20260505233149 | 85 | 354 | 2.0 | 12.0 | 0.00 | 0.00 | 0.00 | 65 | 1003.2 |
| 20260505232646 | 85 | 6 | 4.0 | 10.0 | 0.00 | 0.00 | 0.00 | 64 | 1003.1 |
| 20260505232144 | 86 | 346 | 9.0 | 12.0 | 0.00 | 0.00 | 0.00 | 64 | 1003.1 |
| 20260505231640 | 87 | 353 | 8.0 | 12.0 | 0.00 | 0.00 | 0.00 | 62 | 1003.1 |
| 20260505231139 | 87 | 329 | 5.0 | 9.0 | 0.00 | 0.00 | 0.00 | 62 | 1003.3 |
| 20260505230637 | 87 | 339 | 9.0 | 11.0 | 0.00 | 0.00 | 0.00 | 61 | 1003.0 |
| 20260505230133 | 87 | 7 | 7.0 | 12.0 | 0.00 | 0.00 | 0.00 | 61 | 1003.0 |
| 20260505225629 | 87 | 5 | 9.0 | 15.0 | 0.00 | 0.00 | 0.00 | 62 | 1003.0 |
| 20260505225125 | 87 | 351 | 9.0 | 14.0 | 0.00 | 0.00 | 0.00 | 61 | 1003.1 |
| 20260505224622 | 87 | 11 | 7.0 | 10.0 | 0.00 | 0.00 | 0.00 | 61 | 1003.0 |
| 20260505224120 | 87 | 2 | 4.0 | 15.0 | 0.00 | 0.00 | 0.00 | 62 | 1002.8 |
| 20260505223617 | 87 | 351 | 8.0 | 14.0 | 0.00 | 0.00 | 0.00 | 62 | 1002.9 |
| 20260505223113 | 86 | 338 | 13.0 | 14.0 | 0.00 | 0.00 | 0.00 | 62 | 1002.8 |
| 20260505222609 | 86 | 7 | 11.0 | 15.0 | 0.00 | 0.00 | 0.00 | 62 | 1002.8 |
| 20260505222106 | 87 | 14 | 3.0 | 15.0 | 0.00 | 0.00 | 0.00 | 62 | 1003.2 |
| 20260505221603 | 87 | 359 | 8.0 | 14.0 | 0.00 | 0.00 | 0.00 | 61 | 1003.0 |
| 20260505221059 | 87 | 347 | 9.0 | 11.0 | 0.00 | 0.00 | 0.00 | 61 | 1002.8 |
| 20260505220556 | 87 | 19 | 7.0 | 13.0 | 0.00 | 0.00 | 0.00 | 61 | 1002.8 |
| 20260505220054 | 89 | 347 | 6.0 | 13.0 | 0.00 | 0.00 | 0.00 | 59 | 1002.7 |
| 20260505215552 | 88 | 5 | 9.0 | 13.0 | 0.00 | 0.00 | 0.00 | 61 | 1002.8 |
| 20260505215050 | 88 | 4 | 5.0 | 13.0 | 0.00 | 0.00 | 0.00 | 60 | 1002.8 |
| 20260505214548 | 89 | 22 | 6.0 | 11.0 | 0.00 | 0.00 | 0.00 | 59 | 1002.9 |
| 20260505214044 | 89 | 25 | 7.0 | 13.0 | 0.00 | 0.00 | 0.00 | 59 | 1002.9 |
| 20260505213542 | 89 | 4 | 3.0 | 8.0 | 0.00 | 0.00 | 0.00 | 59 | 1002.9 |
| 20260505213038 | 87 | 23 | 9.0 | 11.0 | 0.00 | 0.00 | 0.00 | 60 | 1003.0 |
| 20260505212535 | 87 | 18 | 4.0 | 11.0 | 0.00 | 0.00 | 0.00 | 61 | 1003.3 |
| 20260505212032 | 86 | 17 | 6.0 | 13.0 | 0.00 | 0.00 | 0.00 | 62 | 1003.0 |
| 20260505211529 | 87 | 357 | 8.0 | 11.0 | 0.00 | 0.00 | 0.00 | 61 | 1003.1 |
| 20260505211025 | 87 | 6 | 10.0 | 13.0 | 0.00 | 0.00 | 0.00 | 62 | 1003.0 |
| 20260505210522 | 87 | 26 | 10.0 | 13.0 | 0.00 | 0.00 | 0.00 | 61 | 1003.0 |
| 20260505210019 | 86 | 29 | 9.0 | 13.0 | 0.00 | 0.00 | 0.00 | 62 | 1003.2 |
| 20260505205517 | 85 | 29 | 6.0 | 13.0 | 0.00 | 0.00 | 0.00 | 63 | 1003.2 |
| 20260505205014 | 85 | 13 | 12.0 | 16.0 | 0.00 | 0.00 | 0.00 | 62 | 1003.6 |
| 20260505204512 | 85 | 357 | 7.0 | 16.0 | 0.00 | 0.00 | 0.00 | 63 | 1003.5 |
| 20260505204009 | 85 | 29 | 6.0 | 14.0 | 0.00 | 0.00 | 0.00 | 63 | 1003.4 |
| 20260505203505 | 85 | 1 | 8.0 | 16.0 | 0.00 | 0.00 | 0.00 | 64 | 1003.6 |
| 20260505203002 | 85 | 22 | 10.0 | 11.0 | 0.00 | 0.00 | 0.00 | 64 | 1003.7 |
| 20260505202458 | 85 | 4 | 8.0 | 13.0 | 0.00 | 0.00 | 0.00 | 64 | 1003.8 |
| 20260505201954 | 85 | 13 | 9.0 | 13.0 | 0.00 | 0.00 | 0.00 | 64 | 1003.8 |
| 20260505201451 | 85 | 30 | 4.0 | 12.0 | 0.00 | 0.00 | 0.00 | 64 | 1003.7 |
| 20260505200949 | 84 | 18 | 9.0 | 12.0 | 0.00 | 0.00 | 0.00 | 64 | 1003.8 |
| 20260505200447 | 84 | 9 | 8.0 | 15.0 | 0.00 | 0.00 | 0.00 | 65 | 1003.9 |
| 20260505195942 | 84 | 11 | 9.0 | 12.0 | 0.00 | 0.00 | 0.00 | 65 | 1004.0 |
| 20260505195440 | 84 | 354 | 6.0 | 12.0 | 0.00 | 0.00 | 0.00 | 65 | 1003.8 |
| 20260505194937 | 83 | 19 | 8.0 | 16.0 | 0.00 | 0.00 | 0.00 | 66 | 1003.8 |
| 20260505194434 | 83 | 16 | 13.0 | 13.0 | 0.00 | 0.00 | 0.00 | 66 | 1004.2 |
| 20260505193934 | 83 | 5 | 12.0 | 17.0 | 0.00 | 0.00 | 0.00 | 66 | 1003.7 |
| 20260505193432 | 83 | 37 | 6.0 | 13.0 | 0.00 | 0.00 | 0.00 | 67 | 1003.8 |
| 20260505192930 | 83 | 3 | 12.0 | 20.0 | 0.00 | 0.00 | 0.00 | 67 | 1004.1 |
| 20260505192428 | 82 | 6 | 9.0 | 14.0 | 0.00 | 0.00 | 0.00 | 67 | 1003.7 |
| 20260505191925 | 82 | 4 | 11.0 | 19.0 | 0.00 | 0.00 | 0.00 | 67 | 1003.9 |
| 20260505191424 | 82 | 21 | 14.0 | 17.0 | 0.00 | 0.00 | 0.00 | 67 | 1003.8 |
| 20260505190920 | 82 | 23 | 10.0 | 18.0 | 0.00 | 0.00 | 0.00 | 68 | 1004.0 |
| 20260505190415 | 81 | 31 | 11.0 | 17.0 | 0.00 | 0.00 | 0.00 | 69 | 1004.0 |
| 20260505185911 | 82 | 8 | 12.0 | 13.0 | 0.00 | 0.00 | 0.00 | 69 | 1004.2 |
| 20260505185408 | 81 | 6 | 11.0 | 17.0 | 0.00 | 0.00 | 0.00 | 68 | 1004.4 |
| 20260505184904 | 81 | 17 | 10.0 | 14.0 | 0.00 | 0.00 | 0.00 | 69 | 1004.1 |
| 20260505184401 | 81 | 25 | 6.0 | 16.0 | 0.00 | 0.00 | 0.00 | 69 | 1004.5 |
| 20260505183858 | 81 | 30 | 9.0 | 16.0 | 0.00 | 0.00 | 0.00 | 69 | 1004.3 |
| 20260505183355 | 81 | 13 | 10.0 | 15.0 | 0.00 | 0.00 | 0.00 | 70 | 1004.4 |
| 20260505182852 | 81 | 17 | 9.0 | 16.0 | 0.00 | 0.00 | 0.00 | 68 | 1004.2 |
| 20260505182348 | 81 | 43 | 8.0 | 15.0 | 0.00 | 0.00 | 0.00 | 68 | 1004.3 |
| 20260505181845 | 80 | 24 | 12.0 | 16.0 | 0.00 | 0.00 | 0.00 | 70 | 1004.5 |
| 20260505181343 | 80 | 23 | 13.0 | 17.0 | 0.00 | 0.00 | 0.00 | 70 | 1004.3 |
| 20260505180839 | 81 | 14 | 16.0 | 16.0 | 0.00 | 0.00 | 0.00 | 69 | 1004.3 |
| 20260505180335 | 81 | 9 | 11.0 | 15.0 | 0.00 | 0.00 | 0.00 | 68 | 1004.3 |
| 20260505175832 | 81 | 14 | 11.0 | 14.0 | 0.00 | 0.00 | 0.00 | 69 | 1004.3 |
| 20260505175329 | 81 | 6 | 12.0 | 17.0 | 0.00 | 0.00 | 0.00 | 69 | 1004.6 |
| 20260505174825 | 80 | 22 | 9.0 | 18.0 | 0.00 | 0.00 | 0.00 | 70 | 1004.6 |
| 20260505174323 | 80 | 3 | 9.0 | 16.0 | 0.00 | 0.00 | 0.00 | 70 | 1004.6 |
| 20260505173818 | 80 | 6 | 11.0 | 17.0 | 0.00 | 0.00 | 0.00 | 70 | 1004.5 |
| 20260505173316 | 80 | 0 | 12.0 | 16.0 | 0.00 | 0.00 | 0.00 | 70 | 1004.5 |
| 20260505172813 | 79 | 28 | 9.0 | 16.0 | 0.00 | 0.00 | 0.00 | 70 | 1004.4 |
| 20260505172310 | 79 | 21 | 14.0 | 19.0 | 0.00 | 0.00 | 0.00 | 72 | 1004.4 |
| 20260505171804 | 78 | 13 | 9.0 | 15.0 | 0.00 | 0.00 | 0.00 | 73 | 1004.4 |
| 20260505171301 | 79 | 31 | 6.0 | 19.0 | 0.00 | 0.00 | 0.00 | 72 | 1004.8 |
| 20260505170758 | 79 | 353 | 11.0 | 18.0 | 0.00 | 0.00 | 0.00 | 72 | 1004.5 |
| 20260505170255 | 78 | 11 | 15.0 | 17.0 | 0.00 | 0.00 | 0.00 | 73 | 1004.9 |
| 20260505165755 | 78 | 16 | 10.0 | 17.0 | 0.00 | 0.00 | 0.00 | 73 | 1004.6 |
| 20260505165252 | 78 | 6 | 18.0 | 22.0 | 0.00 | 0.00 | 0.00 | 72 | 1004.6 |
| 20260505164748 | 78 | 17 | 17.0 | 18.0 | 0.00 | 0.00 | 0.00 | 73 | 1004.6 |
| 20260505164245 | 78 | 22 | 11.0 | 19.0 | 0.00 | 0.00 | 0.00 | 72 | 1004.6 |
| 20260505163743 | 78 | 0 | 16.0 | 23.0 | 0.00 | 0.00 | 0.00 | 72 | 1004.7 |
| 20260505163242 | 78 | 30 | 10.0 | 22.0 | 0.00 | 0.00 | 0.00 | 72 | 1004.5 |
| 20260505162739 | 78 | 12 | 12.0 | 17.0 | 0.00 | 0.00 | 0.00 | 73 | 1004.5 |
| 20260505162235 | 78 | 39 | 8.0 | 19.0 | 0.00 | 0.00 | 0.00 | 74 | 1004.5 |
| 20260505161732 | 78 | 30 | 8.0 | 17.0 | 0.00 | 0.00 | 0.00 | 73 | 1004.3 |
| 20260505161230 | 77 | 7 | 10.0 | 22.0 | 0.00 | 0.00 | 0.00 | 73 | 1004.2 |
| 20260505160727 | 77 | 36 | 11.0 | 22.0 | 0.00 | 0.00 | 0.00 | 74 | 1004.1 |
| 20260505160225 | 76 | 20 | 11.0 | 20.0 | 0.00 | 0.00 | 0.00 | 75 | 1004.2 |
| 20260505153204 | 76 | 32 | 9.0 | 19.0 | 0.00 | 0.00 | 0.00 | 76 | 1004.6 |
| 20260505152700 | 75 | 7 | 6.0 | 18.0 | 0.00 | 0.00 | 0.00 | 77 | 1004.5 |
| 20260505152156 | 75 | 28 | 21.0 | 23.0 | 0.00 | 0.00 | 0.00 | 77 | 1004.2 |
| 20260505151652 | 75 | 35 | 16.0 | 20.0 | 0.00 | 0.00 | 0.00 | 78 | 1004.4 |
| 20260505151149 | 75 | 9 | 16.0 | 19.0 | 0.00 | 0.00 | 0.00 | 78 | 1004.4 |
| 20260505150645 | 75 | 13 | 9.0 | 23.0 | 0.00 | 0.00 | 0.00 | 77 | 1004.6 |
| 20260505150143 | 75 | 20 | 8.0 | 17.0 | 0.00 | 0.00 | 0.00 | 78 | 1004.3 |
| 20260505140616 | 74 | 39 | 10.0 | 23.0 | 0.00 | 0.00 | 0.00 | 79 | 1004.1 |
| 20260505140113 | 73 | 9 | 9.0 | 17.0 | 0.00 | 0.00 | 0.00 | 80 | 1004.2 |
| 20260505125030 | 73 | 8 | 13.0 | 20.0 | 0.00 | 0.00 | 0.00 | 81 | 1004.2 |
| 20260505124526 | 72 | 17 | 11.0 | 20.0 | 0.00 | 0.00 | 0.00 | 81 | 1003.7 |
| 20260505124023 | 72 | 2 | 10.0 | 21.0 | 0.00 | 0.00 | 0.00 | 81 | 1003.8 |
| 20260505123519 | 72 | 5 | 5.0 | 13.0 | 0.00 | 0.00 | 0.00 | 81 | 1003.8 |
| 20260505123015 | 72 | 5 | 8.0 | 14.0 | 0.00 | 0.00 | 0.00 | 81 | 1003.6 |
| 20260505122513 | 72 | 39 | 12.0 | 19.0 | 0.00 | 0.00 | 0.00 | 81 | 1003.5 |
| 20260505122009 | 72 | 7 | 9.0 | 17.0 | 0.00 | 0.00 | 0.00 | 81 | 1003.7 |
| 20260505121506 | 72 | 20 | 12.0 | 22.0 | 0.00 | 0.00 | 0.00 | 81 | 1003.8 |
| 20260505121002 | 72 | 357 | 11.0 | 20.0 | 0.00 | 0.00 | 0.00 | 81 | 1003.4 |
| 20260505120459 | 72 | 351 | 8.0 | 13.0 | 0.00 | 0.00 | 0.00 | 81 | 1003.6 |
| 20260505115958 | 72 | 10 | 9.0 | 21.0 | 0.00 | 0.00 | 0.00 | 81 | 1003.6 |
| 20260505115454 | 72 | 355 | 9.0 | 14.0 | 0.00 | 0.00 | 0.00 | 81 | 1003.4 |
| 20260505114953 | 72 | 344 | 19.0 | 21.0 | 0.00 | 0.00 | 0.00 | 81 | 1003.4 |
| 20260505114448 | 72 | 13 | 14.0 | 15.0 | 0.00 | 0.00 | 0.00 | 81 | 1003.5 |
| 20260505113945 | 72 | 19 | 6.0 | 13.0 | 0.00 | 0.00 | 0.00 | 81 | 1003.4 |
| 20260505113441 | 72 | 348 | 10.0 | 17.0 | 0.00 | 0.00 | 0.00 | 81 | 1003.2 |
| 20260505112937 | 72 | 13 | 8.0 | 17.0 | 0.00 | 0.00 | 0.00 | 81 | 1003.3 |
| 20260505112435 | 72 | 9 | 8.0 | 16.0 | 0.00 | 0.00 | 0.00 | 81 | 1003.5 |
| 20260505111931 | 72 | 336 | 13.0 | 15.0 | 0.00 | 0.00 | 0.00 | 81 | 1003.6 |
| 20260505111426 | 72 | 352 | 6.0 | 12.0 | 0.00 | 0.00 | 0.00 | 81 | 1003.4 |
| 20260505110922 | 72 | 4 | 7.0 | 14.0 | 0.00 | 0.00 | 0.00 | 81 | 1003.5 |
| 20260505110419 | 72 | 37 | 13.0 | 14.0 | 0.00 | 0.00 | 0.00 | 81 | 1003.4 |
| 20260505101850 | 72 | 358 | 14.0 | 19.0 | 0.00 | 0.00 | 0.00 | 81 | 1003.6 |
| 20260505101345 | 72 | 1 | 6.0 | 17.0 | 0.00 | 0.00 | 0.00 | 81 | 1003.6 |
| 20260505100841 | 72 | 350 | 10.0 | 14.0 | 0.00 | 0.00 | 0.00 | 81 | 1003.6 |
| 20260505100338 | 72 | 20 | 15.0 | 18.0 | 0.00 | 0.00 | 0.00 | 81 | 1003.7 |
| 20260505095833 | 72 | 2 | 11.0 | 15.0 | 0.00 | 0.00 | 0.00 | 81 | 1003.7 |
| 20260505095332 | 72 | 356 | 10.0 | 14.0 | 0.00 | 0.00 | 0.00 | 81 | 1003.9 |
| 20260505094827 | 72 | 358 | 11.0 | 19.0 | 0.00 | 0.00 | 0.00 | 81 | 1003.8 |
| 20260505094324 | 72 | 356 | 13.0 | 17.0 | 0.00 | 0.00 | 0.00 | 81 | 1003.9 |
| 20260505093819 | 72 | 10 | 10.0 | 13.0 | 0.00 | 0.00 | 0.00 | 81 | 1003.8 |
| 20260505093318 | 72 | 1 | 12.0 | 17.0 | 0.00 | 0.00 | 0.00 | 81 | 1004.0 |
| 20260505092814 | 72 | 337 | 7.0 | 20.0 | 0.00 | 0.00 | 0.00 | 81 | 1003.9 |
| 20260505092313 | 72 | 1 | 10.0 | 12.0 | 0.00 | 0.00 | 0.00 | 81 | 1003.9 |
| 20260505091810 | 72 | 26 | 13.0 | 22.0 | 0.00 | 0.00 | 0.00 | 81 | 1004.0 |
| 20260505091308 | 72 | 3 | 12.0 | 18.0 | 0.00 | 0.00 | 0.00 | 81 | 1003.8 |
| 20260505090805 | 72 | 31 | 9.0 | 19.0 | 0.00 | 0.00 | 0.00 | 81 | 1003.9 |
| 20260505090303 | 72 | 16 | 10.0 | 16.0 | 0.00 | 0.00 | 0.00 | 81 | 1003.7 |
| 20260505085800 | 72 | 29 | 13.0 | 13.0 | 0.00 | 0.00 | 0.00 | 81 | 1003.8 |
| 20260505085258 | 72 | 356 | 8.0 | 16.0 | 0.00 | 0.00 | 0.00 | 81 | 1003.7 |
| 20260505084756 | 72 | 353 | 11.0 | 18.0 | 0.00 | 0.00 | 0.00 | 81 | 1003.8 |
| 20260505084255 | 72 | 2 | 8.0 | 16.0 | 0.00 | 0.00 | 0.00 | 81 | 1003.8 |
| 20260505083751 | 71 | 25 | 13.0 | 17.0 | 0.00 | 0.00 | 0.00 | 81 | 1003.8 |
| 20260505083248 | 71 | 348 | 9.0 | 17.0 | 0.00 | 0.00 | 0.00 | 81 | 1003.8 |
| 20260505082744 | 71 | 52 | 7.0 | 16.0 | 0.00 | 0.00 | 0.00 | 81 | 1003.9 |
| 20260505082241 | 71 | 350 | 12.0 | 21.0 | 0.00 | 0.00 | 0.00 | 81 | 1004.0 |
| 20260505081737 | 71 | 3 | 8.0 | 17.0 | 0.00 | 0.00 | 0.00 | 81 | 1003.8 |
| 20260505081235 | 71 | 358 | 11.0 | 17.0 | 0.00 | 0.00 | 0.00 | 81 | 1003.9 |
| 20260505080731 | 71 | 2 | 10.0 | 21.0 | 0.00 | 0.00 | 0.00 | 81 | 1003.9 |
| 20260505080227 | 71 | 3 | 10.0 | 12.0 | 0.00 | 0.00 | 0.00 | 81 | 1004.0 |
| 20260505075723 | 71 | 13 | 8.0 | 17.0 | 0.00 | 0.00 | 0.00 | 81 | 1004.1 |
| 20260505075220 | 71 | 13 | 10.0 | 15.0 | 0.00 | 0.00 | 0.00 | 81 | 1004.3 |
| 20260505074717 | 71 | 356 | 8.0 | 16.0 | 0.00 | 0.00 | 0.00 | 81 | 1004.3 |
| 20260505074214 | 71 | 7 | 12.0 | 21.0 | 0.00 | 0.00 | 0.00 | 80 | 1004.4 |
| 20260505073712 | 71 | 25 | 13.0 | 20.0 | 0.00 | 0.00 | 0.00 | 80 | 1004.5 |
| 20260505073210 | 72 | 1 | 6.0 | 15.0 | 0.00 | 0.00 | 0.00 | 80 | 1004.5 |
| 20260505072705 | 72 | 6 | 12.0 | 19.0 | 0.00 | 0.00 | 0.00 | 80 | 1004.4 |
| 20260505072202 | 72 | 0 | 9.0 | 15.0 | 0.00 | 0.00 | 0.00 | 80 | 1004.6 |
| 20260505071657 | 72 | 0 | 10.0 | 21.0 | 0.00 | 0.00 | 0.00 | 79 | 1004.6 |
| 20260505071155 | 72 | 26 | 7.0 | 16.0 | 0.00 | 0.00 | 0.00 | 79 | 1004.6 |
| 20260505070653 | 72 | 344 | 10.0 | 16.0 | 0.00 | 0.00 | 0.00 | 79 | 1004.8 |
| 20260505070148 | 72 | 31 | 6.0 | 15.0 | 0.00 | 0.00 | 0.00 | 79 | 1004.8 |
| 20260505065645 | 72 | 356 | 8.0 | 17.0 | 0.00 | 0.00 | 0.00 | 79 | 1004.7 |
| 20260505065142 | 72 | 355 | 11.0 | 17.0 | 0.00 | 0.00 | 0.00 | 78 | 1004.9 |
| 20260505064638 | 72 | 342 | 9.0 | 20.0 | 0.00 | 0.00 | 0.00 | 78 | 1004.8 |
| 20260505064136 | 72 | 14 | 6.0 | 16.0 | 0.00 | 0.00 | 0.00 | 78 | 1004.9 |
| 20260505063634 | 73 | 14 | 9.0 | 22.0 | 0.00 | 0.00 | 0.00 | 78 | 1004.9 |
| 20260505063130 | 72 | 11 | 13.0 | 15.0 | 0.00 | 0.00 | 0.00 | 77 | 1004.8 |
| 20260505062626 | 72 | 339 | 15.0 | 20.0 | 0.00 | 0.00 | 0.00 | 77 | 1005.2 |
| 20260505062124 | 73 | 351 | 14.0 | 23.0 | 0.00 | 0.00 | 0.00 | 77 | 1005.0 |
| 20260505061621 | 73 | 352 | 8.0 | 16.0 | 0.00 | 0.00 | 0.00 | 77 | 1005.1 |
| 20260505061119 | 73 | 356 | 10.0 | 15.0 | 0.00 | 0.00 | 0.00 | 76 | 1005.2 |
| 20260505060616 | 73 | 0 | 12.0 | 17.0 | 0.00 | 0.00 | 0.00 | 76 | 1005.2 |
| 20260505060113 | 73 | 346 | 12.0 | 18.0 | 0.00 | 0.00 | 0.00 | 76 | 1005.3 |
| 20260505055608 | 73 | 332 | 9.0 | 17.0 | 0.00 | 0.00 | 0.00 | 75 | 1005.1 |
| 20260505055105 | 73 | 9 | 11.0 | 18.0 | 0.00 | 0.00 | 0.00 | 75 | 1005.1 |
| 20260505054602 | 73 | 346 | 14.0 | 18.0 | 0.00 | 0.00 | 0.00 | 75 | 1005.2 |
| 20260505054100 | 73 | 343 | 9.0 | 21.0 | 0.00 | 0.00 | 0.00 | 75 | 1005.4 |
| 20260505053557 | 73 | 16 | 17.0 | 17.0 | 0.00 | 0.00 | 0.00 | 75 | 1005.3 |
| 20260505053053 | 73 | 343 | 8.0 | 17.0 | 0.00 | 0.00 | 0.00 | 74 | 1005.3 |
| 20260505052550 | 73 | 354 | 6.0 | 14.0 | 0.00 | 0.00 | 0.00 | 74 | 1005.4 |
| 20260505052048 | 73 | 356 | 13.0 | 19.0 | 0.00 | 0.00 | 0.00 | 74 | 1005.6 |
| 20260505051545 | 73 | 28 | 15.0 | 20.0 | 0.00 | 0.00 | 0.00 | 73 | 1005.6 |
| 20260505051043 | 73 | 19 | 13.0 | 17.0 | 0.00 | 0.00 | 0.00 | 73 | 1005.5 |
| 20260505050541 | 73 | 351 | 7.0 | 19.0 | 0.00 | 0.00 | 0.00 | 73 | 1005.6 |